• In Deutschland
  • Länderverzeichnis
  • Für 7 Tage
  • Wassertemperatur
  • Satellitenkarten
  • Wetterkarte
  • Widgets
  • user-avatar
    Anmelden

    Stündliche Wetter Buenos Aires

    Heute, 25 September, Montag

    Zeit Temperatur Niederschläge Wind Luftdruck Luftfeuchtigkeit
    00:00 +16°C° 0 mm 2 m/S 763 mmHg 86%
    01:00 +16°C° 0 mm 2 m/S 763 mmHg 87%
    02:00 +16°C° 0 mm 2 m/S 763 mmHg 88%
    03:00 +15°C° 0 mm 2 m/S 763 mmHg 89%
    04:00 +15°C° 0 mm 2 m/S 763 mmHg 90%
    05:00 +15°C° 0 mm 2 m/S 763 mmHg 91%
    06:00 +16°C° 0 mm 2 m/S 764 mmHg 87%
    07:00 +18°C° 0 mm 1 m/S 764 mmHg 84%
    08:00 +19°C° 0 mm 1 m/S 764 mmHg 81%
    09:00 +20°C° 0 mm 2 m/S 764 mmHg 74%
    10:00 +21°C° 0 mm 2 m/S 764 mmHg 67%
    11:00 +24°C° 0 mm 2 m/S 764 mmHg 61%
    12:00 +24°C° 0 mm 2 m/S 764 mmHg 59%
    13:00 +25°C° 0 mm 3 m/S 763 mmHg 58%
    14:00 +25°C° 0 mm 3 m/S 763 mmHg 56%
    15:00 +24°C° 0 mm 3 m/S 763 mmHg 61%
    16:00 +22°C° 0 mm 3 m/S 763 mmHg 66%
    17:00 +21°C° 0 mm 3 m/S 762 mmHg 70%
    18:00 +20°C° 0 mm 4 m/S 763 mmHg 75%
    19:00 +19°C° 0 mm 4 m/S 763 mmHg 79%
    20:00 +18°C° 0 mm 4 m/S 764 mmHg 83%
    21:00 +17°C° 0 mm 4 m/S 764 mmHg 84%
    22:00 +17°C° 0 mm 4 m/S 764 mmHg 85%
    23:00 +15°C° 0 mm 4 m/S 764 mmHg 87%

    Morgen, 26 September, Dienstag

    Zeit Temperatur Niederschläge Wind Luftdruck Luftfeuchtigkeit
    00:00 +15°C° 0 mm 5 m/S 764 mmHg 86%
    01:00 +15°C° 0 mm 5 m/S 764 mmHg 86%
    02:00 +14°C° 0 mm 6 m/S 764 mmHg 86%
    03:00 +14°C° 0 mm 6 m/S 764 mmHg 85%
    04:00 +14°C° 0 mm 6 m/S 764 mmHg 84%
    05:00 +14°C° 0 mm 6 m/S 764 mmHg 82%
    06:00 +14°C° 0 mm 6 m/S 764 mmHg 81%
    07:00 +14°C° 0 mm 6 m/S 763 mmHg 80%
    08:00 +15°C° 0 mm 6 m/S 763 mmHg 79%
    09:00 +15°C° 0 mm 6 m/S 763 mmHg 79%
    10:00 +15°C° 0 mm 6 m/S 763 mmHg 78%
    11:00 +16°C° 0 mm 6 m/S 763 mmHg 78%
    12:00 +16°C° 0 mm 6 m/S 762 mmHg 78%
    13:00 +16°C° 0 mm 5 m/S 762 mmHg 78%
    14:00 +16°C° 0 mm 5 m/S 762 mmHg 79%
    15:00 +15°C° 0,1 mm 6 m/S 762 mmHg 79%
    16:00 +14°C° 0,1 mm 7 m/S 762 mmHg 80%
    17:00 +12°C° 0,1 mm 8 m/S 762 mmHg 80%
    18:00 +12°C° 0 mm 8 m/S 762 mmHg 81%
    19:00 +11°C° 0 mm 8 m/S 763 mmHg 82%
    20:00 +11°C° 0 mm 8 m/S 763 mmHg 82%
    21:00 +11°C° 0,2 mm 7 m/S 763 mmHg 84%
    22:00 +11°C° 0,2 mm 7 m/S 764 mmHg 85%
    23:00 +11°C° 0,2 mm 6 m/S 764 mmHg 86%

    übermorgen, 27 September, Mittwoch

    Zeit Temperatur Niederschläge Wind Luftdruck Luftfeuchtigkeit
    00:00 +11°C° 0,2 mm 6 m/S 764 mmHg 87%
    01:00 +11°C° 0,2 mm 6 m/S 764 mmHg 87%
    02:00 +11°C° 0,2 mm 6 m/S 764 mmHg 88%
    03:00 +10°C° 0,1 mm 7 m/S 764 mmHg 87%
    04:00 +10°C° 0,1 mm 7 m/S 764 mmHg 87%
    05:00 +10°C° 0,1 mm 7 m/S 764 mmHg 86%
    06:00 +10°C° 0,1 mm 7 m/S 765 mmHg 85%
    07:00 +10°C° 0,1 mm 7 m/S 765 mmHg 83%
    08:00 +11°C° 0,1 mm 7 m/S 766 mmHg 82%
    09:00 +13°C° 0 mm 6 m/S 766 mmHg 78%
    10:00 +13°C° 0 mm 6 m/S 766 mmHg 75%
    11:00 +14°C° 0 mm 6 m/S 766 mmHg 71%
    12:00 +14°C° 0 mm 6 m/S 766 mmHg 71%
    13:00 +15°C° 0 mm 6 m/S 766 mmHg 70%
    14:00 +15°C° 0 mm 6 m/S 765 mmHg 69%
    15:00 +14°C° 0 mm 5 m/S 766 mmHg 70%
    16:00 +14°C° 0 mm 5 m/S 766 mmHg 71%
    17:00 +14°C° 0 mm 5 m/S 766 mmHg 72%
    18:00 +13°C° 0 mm 5 m/S 766 mmHg 74%
    19:00 +12°C° 0 mm 5 m/S 767 mmHg 75%
    20:00 +12°C° 0 mm 5 m/S 767 mmHg 77%
    21:00 +10°C° 0 mm 5 m/S 767 mmHg 79%
    22:00 +10°C° 0 mm 5 m/S 767 mmHg 81%
    23:00 +11°C° 0 mm 4 m/S 767 mmHg 82%

    28 September, Donnerstag

    Zeit Temperatur Niederschläge Wind Luftdruck Luftfeuchtigkeit
    00:00 +11°C° 0 mm 4 m/S 767 mmHg 84%
    01:00 +11°C° 0 mm 4 m/S 767 mmHg 85%
    02:00 +10°C° 0 mm 4 m/S 766 mmHg 87%
    03:00 +10°C° 0 mm 4 m/S 767 mmHg 87%
    04:00 +10°C° 0 mm 4 m/S 767 mmHg 87%
    05:00 +10°C° 0 mm 4 m/S 767 mmHg 88%
    06:00 +12°C° 0 mm 4 m/S 767 mmHg 83%
    07:00 +13°C° 0 mm 4 m/S 768 mmHg 77%
    08:00 +15°C° 0 mm 5 m/S 768 mmHg 72%
    09:00 +16°C° 0 mm 5 m/S 768 mmHg 68%
    10:00 +17°C° 0 mm 5 m/S 767 mmHg 64%
    11:00 +19°C° 0 mm 5 m/S 767 mmHg 59%
    12:00 +19°C° 0 mm 5 m/S 766 mmHg 59%
    13:00 +20°C° 0 mm 5 m/S 766 mmHg 59%
    14:00 +20°C° 0 mm 5 m/S 765 mmHg 59%
    15:00 +19°C° 0 mm 5 m/S 765 mmHg 63%
    16:00 +19°C° 0 mm 5 m/S 765 mmHg 66%
    17:00 +17°C° 0 mm 5 m/S 765 mmHg 70%
    18:00 +17°C° 0 mm 5 m/S 765 mmHg 72%
    19:00 +16°C° 0 mm 5 m/S 765 mmHg 75%
    20:00 +15°C° 0 mm 5 m/S 766 mmHg 77%
    21:00 +15°C° 0 mm 5 m/S 765 mmHg 77%
    22:00 +15°C° 0 mm 6 m/S 765 mmHg 76%
    23:00 +14°C° 0 mm 6 m/S 765 mmHg 76%

    29 September, Freitag

    Zeit Temperatur Niederschläge Wind Luftdruck Luftfeuchtigkeit
    00:00 +14°C° 0 mm 6 m/S 765 mmHg 77%
    01:00 +13°C° 0 mm 5 m/S 765 mmHg 78%
    02:00 +13°C° 0 mm 5 m/S 765 mmHg 79%
    03:00 +13°C° 0 mm 5 m/S 765 mmHg 80%
    04:00 +13°C° 0 mm 5 m/S 764 mmHg 82%
    05:00 +13°C° 0 mm 5 m/S 764 mmHg 83%
    06:00 +13°C° 0 mm 5 m/S 764 mmHg 82%
    07:00 +14°C° 0 mm 5 m/S 764 mmHg 81%
    08:00 +15°C° 0 mm 5 m/S 764 mmHg 79%
    09:00 +16°C° 0 mm 5 m/S 764 mmHg 77%
    10:00 +17°C° 0 mm 5 m/S 763 mmHg 75%
    11:00 +19°C° 0 mm 5 m/S 763 mmHg 73%
    12:00 +19°C° 0 mm 4 m/S 762 mmHg 74%
    13:00 +19°C° 0 mm 4 m/S 761 mmHg 75%
    14:00 +19°C° 0 mm 4 m/S 761 mmHg 77%
    15:00 +18°C° 0 mm 4 m/S 760 mmHg 79%
    16:00 +18°C° 0 mm 4 m/S 760 mmHg 80%
    17:00 +18°C° 0 mm 4 m/S 760 mmHg 82%
    18:00 +18°C° 0 mm 4 m/S 759 mmHg 84%
    19:00 +17°C° 0 mm 4 m/S 759 mmHg 86%
    20:00 +17°C° 0 mm 4 m/S 759 mmHg 88%
    21:00 +17°C° 0 mm 3 m/S 759 mmHg 89%
    22:00 +16°C° 0 mm 3 m/S 758 mmHg 90%
    23:00 +16°C° 0 mm 3 m/S 757 mmHg 91%

    30 September, Samstag

    Zeit Temperatur Niederschläge Wind Luftdruck Luftfeuchtigkeit
    00:00 +16°C° 0,1 mm 3 m/S 757 mmHg 92%
    01:00 +16°C° 0,1 mm 2 m/S 756 mmHg 93%
    02:00 +16°C° 0,1 mm 2 m/S 756 mmHg 94%
    03:00 +16°C° 0,1 mm 1 m/S 755 mmHg 94%
    04:00 +16°C° 0,1 mm 1 m/S 755 mmHg 94%
    05:00 +16°C° 0,1 mm 1 m/S 754 mmHg 94%
    06:00 +18°C° 0 mm 1 m/S 754 mmHg 92%
    07:00 +19°C° 0 mm 1 m/S 754 mmHg 90%
    08:00 +18°C° 0 mm 2 m/S 753 mmHg 88%
    09:00 +20°C° 0 mm 1 m/S 753 mmHg 87%
    10:00 +20°C° 0 mm 1 m/S 752 mmHg 86%
    11:00 +20°C° 0 mm 1 m/S 752 mmHg 85%
    12:00 +21°C° 0,1 mm 1 m/S 751 mmHg 81%
    13:00 +21°C° 0,1 mm 2 m/S 750 mmHg 77%
    14:00 +23°C° 0,1 mm 2 m/S 750 mmHg 72%
    15:00 +21°C° 0,4 mm 2 m/S 749 mmHg 77%
    16:00 +20°C° 0,4 mm 2 m/S 749 mmHg 83%
    17:00 +19°C° 0,4 mm 2 m/S 749 mmHg 88%
    18:00 +19°C° 0,2 mm 2 m/S 749 mmHg 89%
    19:00 +18°C° 0,2 mm 3 m/S 749 mmHg 91%
    20:00 +18°C° 0,2 mm 3 m/S 748 mmHg 93%
    21:00 +18°C° 0,2 mm 3 m/S 749 mmHg 93%
    22:00 +17°C° 0,2 mm 3 m/S 749 mmHg 93%
    23:00 +17°C° 0,2 mm 2 m/S 749 mmHg 94%
    Mehr zeigen